Pittsburgh Allegheny Co., PA

9:21 PM EST on December 17, 2017 (GMT -0500)
Allegheny County

Weather History for KAGC - February, 2013

Change the Weather History Date:

Monday, February 4, 2013

  Actual Average Record
Temperature  
Mean Temperature 21 °F -  
Max Temperature 26 °F 38 °F 59 °F (1991)
Min Temperature 16 °F 23 °F 3 °F (2007)
Degree Days  
Heating Degree Days 44    
Moisture  
Dew Point 19 °F    
Average Humidity 86    
Maximum Humidity 100    
Minimum Humidity 68    
Precipitation  
Precipitation 0.00 in - - ()
Sea Level Pressure  
Sea Level Pressure 29.93 in    
Wind  
Wind Speed 8 mph (SSW)    
Max Wind Speed 17 mph    
Max Gust Speed 22 mph    
Visibility 4 miles    
Events Fog , Snow    
Averages and records for this station are not official NWS values.
T = Trace of Precipitation, MM = Missing Value Source: NWS Daily Summary

Daily Weather History Graph

Daily Weather History Graph

Search for Another Location

Airport or City:

Trip Planner

Search our weather history database for the weather conditions in past years. The results will help you decide how hot, cold, wet, or windy it might be!

Date:

Astronomy

Feb. 04, 2013 Rise Set
Actual Time 7:25 AM EST 5:42 PM EST
Civil Twilight 6:57 AM EST 6:10 PM EST
Nautical Twilight 6:24 AM EST 6:43 PM EST
Astronomical Twilight 5:52 AM EST 7:15 PM EST
Moon 1:59 AM EST (2/4) 12:04 PM EST (2/4)
Length of Visible Light 11h 13m
Length of Day
10h 16m
Last Quarter, 37% of the Moon is Illuminated
Feb 4
Last Quarter
Feb 10
New
Feb 17
First Quarter
Feb 25
Full
Mar 4
Last Quarter

Hourly Weather History & Observations

Time (EST) Temp. Windchill Dew Point Humidity Pressure Visibility Wind Dir Wind Speed Gust Speed Precip Events Conditions
12:53 AM 17.1 °F 4.3 °F 12.0 °F 81% 30.06 in 4.0 mi West 11.5 mph - 0.00 in Snow Light Snow
1:53 AM 17.1 °F 3.6 °F 10.9 °F 77% 30.06 in 5.0 mi West 12.7 mph 17.3 mph 0.00 in Snow Light Snow
2:53 AM 17.1 °F 5.8 °F 12.0 °F 81% 30.07 in 8.0 mi WSW 9.2 mph - 0.00 in   Overcast
3:53 AM 17.1 °F 1.5 °F 10.9 °F 77% 30.08 in 8.0 mi West 17.3 mph 21.9 mph 0.00 in Snow Light Snow
5:53 AM 17.6 °F 5.7 °F 8.6 °F 68% 30.02 in 10.0 mi WSW 10.4 mph - N/A   Overcast
6:53 AM 17.1 °F 6.6 °F 9.0 °F 71% 30.11 in 10.0 mi SW 8.1 mph - N/A   Overcast
7:53 AM 16.0 °F 5.3 °F 10.0 °F 77% 30.10 in 10.0 mi SSW 8.1 mph - N/A   Overcast
8:53 AM 18.0 °F 6.9 °F 10.9 °F 74% 30.09 in 8.0 mi SSW 9.2 mph - N/A   Overcast
9:53 AM 19.0 °F 9.0 °F 12.9 °F 77% 30.07 in 8.0 mi SSW 8.1 mph - 0.00 in   Overcast
10:53 AM 21.0 °F 9.3 °F 12.9 °F 71% 30.05 in 10.0 mi SW 11.5 mph - N/A   Mostly Cloudy
11:53 AM 23.0 °F 11.7 °F 14.0 °F 68% 30.02 in 10.0 mi SW 11.5 mph - N/A   Overcast
12:53 PM 23.0 °F 11.7 °F 16.0 °F 74% 30.01 in 3.0 mi WSW 11.5 mph - 0.00 in Snow Light Snow
1:01 PM 23.0 °F 13.1 °F 17.6 °F 80% 29.94 in 2.0 mi WSW 9.2 mph - 0.00 in Snow Light Snow
1:08 PM 23.0 °F 13.1 °F 17.6 °F 80% 29.93 in 2.0 mi WSW 9.2 mph - 0.00 in Snow Light Snow
1:53 PM 23.0 °F 15.8 °F 19.0 °F 85% 29.99 in 1.0 mi WSW 5.8 mph - 0.00 in Snow Light Snow
2:53 PM 24.1 °F 17.0 °F 19.0 °F 81% 29.96 in 1.0 mi SSW 5.8 mph - 0.00 in Snow Light Snow
3:24 PM 24.8 °F 20.5 °F 21.2 °F 86% 29.88 in 1.2 mi SSW 3.5 mph - 0.00 in Snow Light Snow
3:31 PM 24.8 °F 16.9 °F 21.2 °F 86% 29.88 in 1.2 mi South 6.9 mph - 0.00 in Snow Light Snow
3:38 PM 24.8 °F 17.9 °F 19.4 °F 80% 29.87 in 1.8 mi South 5.8 mph - 0.00 in Snow Light Snow
3:53 PM 24.1 °F 18.2 °F 19.9 °F 84% 29.94 in 1.0 mi South 4.6 mph - 0.00 in Snow Light Snow
3:57 PM 24.8 °F 16.9 °F 21.2 °F 86% 29.87 in 1.0 mi SSE 6.9 mph - 0.00 in Snow Light Snow
4:11 PM 24.8 °F 17.9 °F 21.2 °F 86% 29.86 in 1.0 mi SSE 5.8 mph - 0.00 in Snow Light Snow
4:39 PM 23.0 °F 18.4 °F 21.2 °F 93% 29.85 in 1.0 mi South 3.5 mph - 0.00 in Snow Light Snow
4:48 PM 23.0 °F 17.0 °F 21.2 °F 93% 29.85 in 0.5 mi SE 4.6 mph - 0.00 in Fog , Snow Light Snow
4:53 PM 23.0 °F 17.0 °F 21.9 °F 96% 29.92 in 0.5 mi SE 4.6 mph - 0.00 in Fog , Snow Light Snow
5:53 PM 23.0 °F - 21.9 °F 96% 29.91 in 1.2 mi Calm Calm - 0.00 in Snow Light Snow
6:01 PM 23.0 °F - 21.2 °F 93% 29.84 in 1.0 mi Calm Calm - 0.00 in Snow Light Snow
6:50 PM 24.8 °F - 21.2 °F 86% 29.84 in 2.0 mi Calm Calm - 0.00 in Snow Light Snow
6:53 PM 24.1 °F - 21.9 °F 91% 29.91 in 2.5 mi Calm Calm - 0.00 in Snow Light Snow
7:19 PM 23.0 °F 18.4 °F 21.2 °F 93% 29.84 in 1.5 mi SE 3.5 mph - 0.00 in Snow Light Snow
7:38 PM 23.0 °F 18.4 °F 21.2 °F 93% 29.83 in 2.5 mi ESE 3.5 mph - 0.00 in Snow Light Snow
7:53 PM 24.1 °F - 23.0 °F 96% 29.91 in 3.0 mi Calm Calm - 0.00 in Snow Light Snow
8:05 PM 24.8 °F - 23.0 °F 93% 29.84 in 2.5 mi Calm Calm - 0.00 in Snow Light Snow
8:13 PM 24.8 °F 20.5 °F 23.0 °F 93% 29.84 in 4.0 mi SE 3.5 mph - 0.00 in   Overcast
8:53 PM 24.1 °F 19.7 °F 23.0 °F 96% 29.90 in 5.0 mi SSE 3.5 mph - 0.00 in   Overcast
9:16 PM 24.8 °F 17.9 °F 23.0 °F 93% 29.83 in 6.0 mi SSE 5.8 mph - N/A   Overcast
9:53 PM 25.0 °F 19.3 °F 23.0 °F 92% 29.89 in 6.0 mi South 4.6 mph - N/A   Overcast
10:53 PM 25.0 °F 18.1 °F 24.1 °F 96% 29.89 in 6.0 mi South 5.8 mph - N/A   Overcast
11:03 PM 24.8 °F 20.5 °F 24.8 °F 100% 29.82 in 6.0 mi South 3.5 mph - N/A   Overcast
11:23 PM 26.6 °F 21.2 °F 24.8 °F 93% 29.83 in 6.0 mi SSW 4.6 mph - N/A   Overcast
11:53 PM 26.1 °F 20.5 °F 24.1 °F 92% 29.88 in 6.0 mi South 4.6 mph - N/A   Overcast